Temp
83 94 103 98 82 84 80 87 98 93 93 100 100 97 98 101 90 80 108 108 107 100 93 88 80 80 80 80 80 80 79 79 79 79 79 79 79 79 79 79 80 80 81 81 81 81 81 81 81
99 99 98 92 78 75 80 91 92 95 99 101 99 99 97 96 105 100 103 107 106 98 92 92 80 80 80 80 80 79 79 79 79 79 79 79 79 79 79 80 80 81 81 81 81 81 81 81 80
92 99 90 85 80 75 81 94 95 99 102 97 95 100 99 97 103 103 107 107 104 97 94 90 80 80 80 80 80 79 79 79 79 79 79 79 79 79 79 80 80 81 81 81 81 81 80 80 80
95 94 91 79 78 85 88 94 99 96 100 99 99 92 102 106 102 106 105 106 101 98 98 82 79 79 80 80 79 79 79 79 79 79 79 79 79 79 79 79 80 81 81 81 81 80 80 80 80
95 92 79 78 78 87 94 98 99 94 95 97 98 93 96 104 105 104 104 105 101 100 98 89 79 79 79 79 79 79 79 79 79 79 79 79 79 78 79 79 80 80 81 81 80 80 79 79 79
86 89 76 75 81 89 93 98 96 94 96 97 95 93 97 107 103 104 106 105 105 102 96 90 80 79 79 79 79 78 78 78 78 78 79 79 78 78 78 79 79 80 80 80 80 79 79 79 79
82 83 77 80 82 87 93 100 95 94 94 94 99 91 99 104 107 105 105 106 105 104 98 92 91 85 79 78 78 78 78 78 78 78 78 78 78 78 78 78 79 79 79 79 79 79 78 78 78
87 84 78 82 80 83 95 96 98 93 92 103 103 90 92 104 105 107 106 107 106 103 100 97 93 92 90 88 78 78 78 78 77 77 77 77 78 78 78 77 78 78 78 78 78 78 78 78 78
91 76 74 79 81 86 96 92 98 98 94 98 98 98 102 102 105 105 104 104 104 103 100 99 96 93 94 94 86 79 78 78 77 78 77 77 88 86 85 83 78 78 78 78 78 78 78 78 78
81 74 77 88 90 89 94 92 92 91 90 92 94 101 104 101 101 101 101 100 101 100 100 101 95 95 96 97 89 89 89 88 87 87 84 88 89 90 92 86 78 78 78 78 78 78 78 78 89
81 73 85 87 91 93 91 92 93 89 85 92 91 95 99 98 98 100 102 103 101 100 99 100 94 94 97 97 91 92 92 90 89 88 87 88 91 91 91 91 88 86 80 87 83 83 85 87 90
76 82 83 86 91 89 87 91 89 89 90 98 98 99 95 93 97 99 101 103 102 99 97 98 95 94 94 99 94 95 94 93 92 92 89 89 90 90 90 93 92 88 91 89 90 91 89 89 91
79 81 85 87 88 89 89 85 86 88 94 97 98 95 94 95 95 99 102 104 102 97 94 94 93 92 93 94 95 95 95 94 94 94 91 91 91 90 91 92 94 94 94 93 91 93 92 91 90
84 83 83 85 86 86 83 84 86 88 94 92 93 93 94 95 96 97 99 100 99 97 93 93 92 90 91 92 92 93 94 95 95 95 94 90 92 91 91 90 91 92 93 94 91 92 91 90 91
82 77 82 82 84 82 85 78 79 89 91 89 90 92 94 96 98 97 98 98 99 97 94 90 91 90 88 89 91 93 95 96 94 95 93 91 90 90 88 91 91 92 92 89 87 87 85 85 82
73 75 68 80 82 82 82 71 84 90 88 86 88 90 91 94 97 98 99 99 96 97 92 92 94 91 87 88 89 91 90 93 92 94 86 92 89 88 87 90 82 76 83 81 77 77 76 76 74
70 63 67 72 84 81 79 73 84 91 87 85 87 89 91 93 95 96 98 93 93 96 93 91 91 92 85 87 88 89 87 91 89 85 85 90 89 86 84 81 81 79 76 76 72 70 67 70 71
62 64 68 70 79 81 76 75 83 88 87 86 87 89 90 92 94 96 96 99 97 96 95 92 91 89 81 83 83 84 89 87 85 86 85 86 85 84 81 76 77 77 76 73 69 71 69 65 67
71 71 70 74 80 78 75 75 79 85 87 86 87 87 89 90 96 96 96 96 97 94 93 91 89 85 83 81 80 81 85 87 86 83 84 81 81 79 78 77 75 74 70 65 66 66 65 66 66
67 67 69 76 81 78 75 71 79 83 85 86 87 87 89 91 93 94 94 94 94 93 91 90 84 82 81 82 82 85 87 82 84 80 81 80 80 80 79 76 73 71 68 63 64 66 68 69 70
65 63 65 68 76 78 74 70 72 81 85 87 89 90 91 90 90 92 93 93 93 91 89 87 84 80 80 82 84 84 85 82 80 78 73 79 81 80 79 77 77 73 74 72 71 71 70 67 70
58 70 68 67 66 62 73 58 69 75 79 83 85 88 89 91 92 93 93 91 91 92 91 88 85 79 82 83 81 79 80 81 78 78 76 78 81 79 78 78 77 75 79 76 75 75 70 69 68
60 70 68 67 64 65 67 60 68 76 73 78 82 86 89 91 92 93 94 93 94 93 91 88 84 80 82 81 81 82 82 79 77 73 74 76 76 78 80 79 79 76 79 72 72 72 68 69 69
66 64 64 66 62 55 62 63 64 71 74 78 83 86 87 90 92 93 95 94 93 94 91 86 80 80 79 79 81 80 79 76 71 69 69 70 71 71 71 71 71 72 73 72 71 73 70 67 67
60 57 40 39 45 47 64 62 66 76 82 82 82 85 87 89 91 92 93 93 91 88 82 78 77 72 76 71 70 73 72 71 67 68 65 64 65 67 69 70 70 72 72 72 72 71 70 69 68
59 53 42 36 40 49 64 57 67 80 85 86 87 87 87 88 91 92 92 86 86 76 73 70 71 69 72 71 69 72 73 75 72 69 63 62 63 68 72 71 73 73 74 74 73 73 72 71 70
56 49 56 45 56 53 58 64 74 80 79 83 85 85 85 87 89 90 81 81 75 71 71 70 71 72 72 75 74 73 74 73 71 68 65 64 63 70 72 73 72 73 74 74 72 74 71 71 70
60 64 45 45 34 39 56 57 62 70 74 78 80 83 85 87 81 76 78 75 72 73 74 72 73 75 76 75 74 74 72 71 69 67 65 66 67 69 71 72 72 73 73 72 70 72 73 70 71
55 52 54 53 47 40 48 58 75 74 77 76 81 80 75 72 70 70 73 73 74 73 75 75 77 76 76 75 73 72 71 71 70 69 68 68 67 69 70 71 72 73 72 71 69 69 70 70 69
60 47 54 44 47 54 48 57 80 78 78 78 72 66 62 63 64 66 69 71 72 73 75 76 76 76 76 75 74 72 72 71 70 69 69 69 69 71 72 72 72 71 71 70 69 69 70 68 66
MSLP
1008.63 1007.61 1006.25 1005.06 1003.79 1000.95 998.21 996.22 994.90 994.38 995.22 995.73 996.26 996.43 995.53 995.19 994.95 997.12 998.37 999.23 1000.03 1002.27 1004.09 1005.31 1006.00 1006.44 1006.94 1007.50 1007.99 1008.52 1008.93 1009.32 1009.63 1009.94 1010.32 1010.59 1010.95 1011.21 1011.50 1011.71 1011.82 1012.05 1012.29 1012.53 1012.74 1012.87 1012.98 1013.13 1013.21
1006.82 1006.32 1005.72 1003.82 1001.93 999.25 997.19 996.40 994.61 994.76 995.26 996.22 996.86 996.67 996.47 995.70 995.85 998.00 998.90 999.81 1000.80 1002.77 1004.26 1005.06 1006.24 1006.70 1007.11 1007.56 1008.11 1008.58 1009.04 1009.51 1009.97 1010.35 1010.64 1010.99 1011.29 1011.47 1011.66 1011.85 1012.06 1012.28 1012.53 1012.75 1012.89 1013.08 1013.23 1013.39 1013.57
1007.46 1006.04 1004.61 1002.50 1000.43 998.22 996.55 995.12 994.86 994.82 995.54 996.76 996.92 997.07 996.50 996.57 997.19 998.07 999.11 1000.26 1001.37 1003.03 1004.25 1005.33 1006.41 1006.92 1007.34 1007.71 1008.28 1008.74 1009.20 1009.70 1010.10 1010.46 1010.88 1011.23 1011.54 1011.77 1011.96 1012.13 1012.24 1012.40 1012.57 1012.79 1013.04 1013.28 1013.48 1013.65 1013.80
1005.97 1005.05 1004.01 1001.21 998.71 997.70 996.76 995.41 994.57 995.11 995.94 996.71 997.12 997.11 997.29 997.76 998.06 998.42 1000.13 1000.82 1002.08 1003.23 1003.95 1005.99 1006.57 1007.03 1007.62 1008.05 1008.48 1008.96 1009.39 1009.84 1010.25 1010.70 1011.10 1011.40 1011.75 1012.05 1012.24 1012.47 1012.67 1012.83 1012.88 1012.97 1013.10 1013.34 1013.58 1013.75 1013.92
1005.53 1003.53 1001.89 1000.04 998.68 997.75 996.33 995.71 995.19 995.66 996.49 996.65 997.18 997.13 997.26 997.95 999.28 999.84 1000.46 1001.12 1002.19 1003.05 1004.02 1006.01 1006.84 1007.25 1007.77 1008.22 1008.74 1009.13 1009.58 1010.00 1010.32 1010.82 1011.29 1011.57 1011.81 1012.05 1012.31 1012.51 1012.69 1012.89 1013.08 1013.20 1013.29 1013.45 1013.60 1013.77 1013.94
1004.03 1002.93 1000.79 998.73 997.50 996.86 996.59 996.15 996.50 996.48 996.75 996.76 997.10 997.50 997.23 997.97 999.24 999.98 1000.46 1001.16 1002.00 1002.79 1004.35 1005.87 1007.03 1007.40 1007.87 1008.33 1008.83 1009.39 1009.83 1010.11 1010.54 1010.90 1011.27 1011.69 1011.95 1012.10 1012.27 1012.49 1012.74 1012.94 1013.05 1013.19 1013.35 1013.54 1013.68 1013.78 1013.91
1003.02 1001.44 999.81 998.40 996.83 995.60 995.22 995.41 995.72 996.57 996.74 996.74 997.29 997.43 997.35 997.52 998.69 999.74 1000.35 1000.90 1001.78 1002.75 1004.39 1005.75 1006.56 1007.40 1008.11 1008.62 1008.95 1009.41 1009.77 1010.11 1010.45 1010.76 1011.14 1011.54 1011.93 1012.24 1012.45 1012.72 1012.91 1013.08 1013.26 1013.43 1013.55 1013.68 1013.82 1013.92 1014.04
1002.61 1001.51 999.38 997.94 996.84 995.38 995.21 995.42 996.02 997.07 996.85 997.07 997.10 997.07 997.52 997.32 998.57 999.30 999.92 1000.44 1001.30 1002.51 1003.93 1005.14 1005.98 1006.98 1007.68 1008.58 1009.37 1009.54 1009.94 1010.22 1010.74 1011.09 1011.31 1011.55 1011.99 1012.35 1012.60 1012.80 1013.03 1013.27 1013.48 1013.64 1013.81 1013.96 1013.98 1014.09 1014.05
1002.68 1000.89 998.27 997.31 996.69 995.69 995.40 995.67 995.98 997.40 997.35 996.96 997.44 997.97 997.59 998.54 998.94 999.08 999.43 1000.06 1000.79 1001.96 1003.31 1004.50 1005.64 1006.53 1007.05 1007.94 1009.18 1009.91 1010.22 1010.54 1010.92 1011.32 1011.55 1011.91 1011.75 1012.17 1012.42 1012.68 1012.92 1013.36 1013.55 1013.72 1013.90 1014.06 1014.25 1014.32 1014.29
1001.60 999.85 997.67 997.38 996.47 995.75 995.41 996.01 996.59 997.22 997.58 997.14 997.87 997.87 998.00 998.88 999.05 998.96 999.05 999.51 1000.34 1001.48 1002.70 1003.77 1005.13 1005.98 1006.47 1007.07 1008.56 1009.26 1009.76 1010.14 1010.58 1010.88 1011.41 1011.27 1011.11 1011.30 1011.39 1011.91 1012.97 1013.35 1013.62 1013.71 1013.84 1013.97 1014.15 1014.43 1013.56
1000.73 998.47 998.05 997.42 996.93 996.41 995.88 995.93 996.90 996.88 997.26 997.17 997.41 997.86 998.02 998.75 999.07 998.75 998.82 999.12 999.87 1001.22 1002.29 1003.11 1004.83 1005.67 1005.96 1006.51 1008.04 1008.41 1008.88 1009.35 1009.94 1010.20 1010.83 1010.96 1010.72 1010.97 1011.31 1011.31 1012.24 1012.70 1013.35 1013.13 1013.50 1013.55 1013.52 1013.13 1012.80
999.77 999.12 998.88 998.09 996.92 996.88 996.69 996.81 996.50 997.24 997.29 997.04 997.22 997.58 998.23 999.09 998.76 998.75 998.46 998.65 999.52 1001.15 1002.36 1003.07 1004.62 1005.52 1005.76 1006.08 1007.41 1007.68 1008.11 1008.81 1009.31 1009.79 1010.41 1010.51 1010.45 1010.48 1010.69 1010.52 1010.76 1011.78 1011.65 1012.07 1011.90 1012.11 1012.49 1012.57 1012.30
998.47 998.61 998.34 997.98 997.60 997.07 997.25 997.22 997.07 996.81 997.38 997.74 997.82 998.28 999.03 998.91 999.06 998.92 998.58 998.47 999.05 1001.29 1002.70 1003.41 1004.67 1005.46 1005.83 1005.96 1006.70 1007.05 1007.44 1008.20 1008.43 1008.95 1009.70 1009.94 1009.95 1010.04 1010.40 1010.47 1010.40 1010.39 1010.71 1010.85 1011.32 1011.23 1011.50 1011.74 1012.08
998.20 998.03 997.65 997.65 997.13 997.28 997.21 997.03 997.11 996.91 997.23 997.72 997.99 998.11 998.67 998.60 998.75 998.68 998.69 998.61 999.01 1001.16 1002.84 1003.76 1004.68 1005.57 1006.04 1006.24 1006.56 1007.05 1007.24 1007.35 1008.01 1008.06 1008.67 1009.70 1009.61 1009.83 1010.13 1010.64 1010.65 1010.63 1010.67 1010.59 1011.09 1011.12 1011.49 1011.81 1011.63
998.41 997.61 996.94 996.46 996.74 996.66 997.51 996.41 995.60 996.70 997.09 997.17 997.61 997.93 998.22 998.23 998.28 998.09 998.41 998.61 999.09 1001.06 1002.85 1003.97 1004.66 1005.50 1006.11 1006.51 1006.82 1007.10 1007.11 1007.19 1007.65 1007.70 1008.34 1009.19 1009.85 1009.80 1010.44 1010.33 1010.51 1010.44 1010.71 1011.43 1011.96 1011.97 1012.36 1012.44 1012.74
998.72 997.85 996.07 995.13 996.10 996.34 997.08 993.55 994.93 995.97 996.27 996.71 997.21 997.54 997.74 997.80 997.80 998.00 997.99 998.44 999.43 1000.96 1002.52 1003.51 1004.10 1004.99 1005.98 1006.53 1006.84 1006.93 1006.81 1007.25 1007.43 1007.41 1008.42 1008.84 1009.56 1010.05 1010.46 1010.39 1010.83 1011.46 1011.58 1012.42 1013.20 1013.30 1013.48 1013.69 1013.73
997.92 995.83 994.58 995.13 994.70 995.39 995.49 993.00 994.45 994.24 994.97 995.66 996.20 996.75 996.84 997.08 997.41 998.02 997.93 998.19 999.01 1000.43 1001.81 1003.12 1003.77 1004.43 1005.83 1006.46 1006.72 1007.06 1006.97 1007.32 1007.47 1007.61 1008.17 1008.51 1009.32 1010.29 1010.83 1011.41 1011.63 1012.14 1012.98 1013.60 1014.08 1014.21 1014.21 1014.46 1014.15
994.68 994.77 994.01 993.23 993.49 993.58 993.92 993.15 993.96 993.34 994.02 994.38 995.07 995.59 996.02 996.23 996.72 997.69 998.02 997.75 998.38 999.82 1001.35 1002.51 1003.47 1004.39 1006.01 1006.41 1007.05 1007.44 1007.35 1007.69 1007.77 1008.07 1008.47 1009.26 1009.78 1010.69 1011.26 1011.99 1012.24 1012.48 1013.19 1013.85 1014.44 1014.72 1015.19 1015.14 1015.47
994.99 993.54 992.82 992.59 992.81 992.56 992.42 993.16 993.17 993.31 993.03 993.40 993.57 994.23 994.85 995.38 996.14 997.13 998.09 998.42 998.76 1000.07 1001.22 1002.10 1003.23 1004.47 1005.63 1006.41 1006.85 1007.21 1007.14 1007.38 1008.03 1008.69 1009.20 1009.97 1010.39 1011.07 1011.51 1012.13 1012.40 1012.75 1013.09 1013.66 1013.81 1014.24 1014.79 1014.32 1015.20
995.58 994.07 992.45 991.80 991.40 991.78 991.90 992.71 992.89 992.84 992.16 992.65 992.75 993.23 993.73 994.71 995.44 996.20 997.51 998.31 998.99 999.89 1001.18 1002.18 1003.73 1004.74 1005.44 1006.10 1006.63 1006.51 1006.90 1007.77 1008.03 1009.37 1009.79 1010.24 1010.61 1011.03 1011.35 1012.09 1012.57 1012.89 1013.16 1013.44 1013.62 1013.99 1014.45 1014.40 1014.28
994.77 994.25 993.40 992.38 991.69 991.58 991.75 991.86 992.36 991.84 992.00 991.94 992.16 992.50 993.03 993.59 994.58 995.47 996.55 997.79 998.97 999.92 1001.16 1002.34 1003.84 1004.82 1005.44 1005.86 1006.40 1006.63 1007.12 1007.81 1008.68 1009.42 1010.28 1010.59 1010.62 1010.99 1011.45 1011.94 1012.36 1012.94 1013.22 1013.32 1013.92 1013.82 1014.60 1014.62 1013.76
994.17 994.18 993.88 993.40 992.76 991.26 992.02 990.76 991.13 991.26 990.84 991.35 991.73 991.88 992.30 992.89 993.87 994.82 995.86 997.28 998.61 999.63 1000.96 1002.19 1003.55 1004.78 1005.34 1005.79 1006.11 1006.56 1006.97 1007.24 1008.45 1009.24 1009.97 1010.50 1010.55 1011.08 1011.48 1011.84 1012.33 1012.66 1012.78 1013.01 1013.40 1013.79 1014.33 1014.12 1013.99
994.55 994.54 994.05 994.04 993.27 992.32 991.14 991.42 989.85 989.78 990.08 990.09 990.50 991.18 991.66 992.34 993.17 994.12 995.27 996.79 998.11 999.12 1000.29 1001.83 1003.34 1004.64 1005.11 1005.55 1005.96 1006.39 1006.91 1007.81 1008.79 1009.78 1010.53 1010.89 1011.58 1011.57 1011.48 1011.78 1012.20 1012.70 1012.73 1013.30 1013.61 1014.08 1014.29 1014.11 1014.29
995.80 995.31 994.61 994.10 993.69 991.59 990.82 990.30 989.09 988.56 988.03 988.49 989.86 990.52 991.14 991.99 992.61 993.78 994.92 996.50 997.56 998.76 1000.22 1001.89 1003.48 1004.39 1005.13 1005.74 1005.98 1006.52 1007.22 1008.15 1009.54 1010.54 1011.49 1012.42 1012.68 1012.90 1012.91 1012.81 1013.15 1013.53 1013.47 1013.58 1013.76 1013.94 1014.34 1014.60 1014.58
995.93 995.32 995.11 994.17 992.31 990.97 990.72 989.22 987.43 986.82 986.51 987.45 988.42 989.47 990.65 991.73 992.30 993.27 994.43 995.93 997.43 999.29 1001.36 1002.84 1003.82 1004.86 1005.41 1006.34 1007.03 1007.37 1007.93 1008.64 1009.40 1010.49 1011.18 1012.79 1013.17 1013.78 1013.62 1013.36 1013.46 1013.62 1013.62 1013.60 1013.74 1014.21 1014.42 1014.63 1014.61
994.41 995.05 994.13 992.79 991.88 991.09 989.98 987.58 986.01 986.39 986.15 986.53 987.75 988.82 990.43 991.48 992.27 993.31 994.41 996.51 998.67 1001.16 1002.93 1003.96 1004.64 1005.44 1006.05 1006.89 1007.67 1007.97 1008.57 1008.70 1009.62 1010.23 1010.04 1010.44 1013.52 1014.49 1014.15 1013.84 1013.52 1013.75 1013.69 1013.84 1013.91 1013.97 1014.09 1014.19 1014.29
994.04 993.62 995.64 994.97 991.78 990.52 989.06 988.34 987.27 986.65 987.19 986.64 987.41 988.59 990.17 991.47 992.49 993.67 996.19 998.14 1000.60 1002.52 1003.60 1004.30 1004.94 1005.75 1006.31 1007.07 1007.83 1008.35 1008.82 1009.32 1010.08 1010.37 1010.63 1011.07 1011.04 1013.77 1014.50 1013.71 1013.64 1013.66 1013.81 1014.07 1014.26 1013.70 1014.11 1014.06 1014.08
993.68 994.23 995.21 994.87 993.04 989.67 987.29 986.81 985.34 986.08 986.87 987.86 988.22 988.92 990.65 992.14 994.04 996.22 997.80 999.69 1001.75 1002.78 1003.52 1004.47 1005.21 1005.77 1006.44 1007.36 1008.06 1008.78 1009.47 1010.04 1010.68 1011.27 1011.60 1011.48 1012.12 1013.24 1013.96 1013.64 1013.83 1013.86 1014.03 1014.32 1014.42 1013.78 1013.60 1013.94 1013.89
993.62 993.28 993.78 994.71 992.80 990.45 987.11 985.12 984.72 985.35 986.58 988.41 989.27 990.77 993.11 995.00 996.95 998.30 999.49 1000.96 1001.90 1002.76 1003.27 1004.03 1004.87 1005.93 1006.67 1007.47 1008.43 1009.22 1009.94 1010.45 1010.79 1010.95 1011.69 1011.94 1012.70 1013.37 1013.62 1013.76 1013.86 1014.02 1014.10 1014.30 1014.34 1014.30 1013.98 1013.68 1013.62
993.64 994.68 994.08 994.05 991.72 991.04 990.03 985.53 984.72 985.61 987.44 989.65 991.61 994.67 996.47 998.09 999.59 1000.26 1000.83 1001.48 1002.15 1002.97 1003.69 1004.32 1005.25 1006.19 1007.05 1007.84 1008.47 1009.31 1010.00 1010.57 1010.99 1011.48 1011.76 1012.50 1012.98 1013.14 1013.46 1013.79 1014.20 1014.29 1014.08 1014.34 1014.25 1014.20 1013.92 1013.67 1013.62
Wind_Speed
13 14 9 7 9 10 19 21 20 3 6 4 6 7 8 17 12 6 14 8 23 22 21 19 17 18 18 17 17 16 16 15 15 16 15 15 14 14 13 11 12 12 12 11 10 10 9 9 10
13 7 8 8 12 17 15 21 23 7 4 8 6 9 11 11 16 10 12 14 22 21 19 19 16 17 17 18 17 17 17 16 15 15 15 14 13 13 13 12 11 12 11 10 10 9 9 9 8
13 11 10 10 17 20 19 20 19 14 6 6 5 2 5 5 8 6 15 17 22 20 19 18 17 17 17 18 17 17 17 16 16 16 15 14 12 12 11 10 11 12 11 11 9 8 8 8 8
7 7 9 16 23 24 26 23 8 6 14 7 10 5 6 6 6 6 14 18 19 18 19 20 17 18 17 18 17 16 16 16 16 15 14 14 12 11 10 9 9 9 10 10 10 9 8 8 8
9 9 14 19 27 26 21 18 18 7 13 13 15 14 6 10 6 10 16 17 18 18 18 18 16 17 17 17 17 17 16 16 16 15 14 14 13 12 11 10 10 10 9 9 10 10 9 8 8
10 10 15 18 26 23 24 24 17 16 13 11 11 10 9 15 8 12 16 17 18 18 18 19 16 16 16 16 16 15 15 16 15 15 15 14 13 12 12 11 10 10 10 10 10 9 9 8 8
18 15 19 23 22 21 20 22 18 19 20 17 9 14 11 13 11 15 16 17 17 18 18 18 18 16 15 14 16 15 16 16 16 15 15 14 13 12 11 10 9 9 9 8 8 9 9 8 8
15 16 26 22 21 25 18 10 10 20 20 17 12 8 12 8 14 15 17 18 18 18 19 19 18 17 16 14 13 15 14 14 13 13 13 13 12 10 9 8 8 8 7 7 7 8 8 8 8
17 18 21 27 25 19 16 12 10 11 16 16 8 15 3 8 12 15 17 17 17 17 19 19 19 18 17 16 14 12 12 12 11 11 11 10 10 11 12 11 12 8 8 8 8 7 7 7 9
22 18 30 22 21 21 14 13 14 15 13 14 15 16 13 6 12 16 17 17 19 20 20 19 18 18 17 14 15 14 13 11 11 11 12 10 10 10 11 10 12 10 8 8 8 8 8 8 10
26 29 21 23 23 19 18 17 10 10 17 17 17 17 12 14 14 17 19 19 20 19 16 20 17 15 17 14 11 9 8 9 9 13 12 10 8 8 8 7 8 8 10 8 10 10 9 12 10
29 29 26 28 25 17 21 16 17 18 14 11 13 16 3 13 15 16 19 19 20 19 16 17 18 15 13 11 11 11 9 9 8 10 12 8 7 7 7 7 8 8 8 9 10 8 9 11 12
31 29 26 23 25 26 17 22 23 22 19 17 11 10 11 10 15 15 16 18 20 18 17 16 16 13 10 9 11 10 10 10 11 11 12 10 9 7 7 6 6 6 7 9 8 7 7 7 7
25 26 26 28 23 20 25 23 22 22 17 19 21 17 16 14 13 17 18 19 18 19 17 16 17 14 12 10 9 8 7 10 9 9 11 13 8 6 6 6 6 6 4 5 6 4 5 7 8
24 27 24 25 29 26 20 29 33 21 18 21 19 18 18 17 14 18 19 17 20 17 17 17 17 16 14 12 9 9 9 9 9 8 9 12 9 6 6 6 6 5 1 1 4 6 6 6 8
16 25 27 29 25 27 24 34 25 25 24 23 22 21 21 21 17 18 18 15 16 18 19 17 15 18 15 12 9 9 6 8 7 8 4 10 9 9 6 4 6 9 7 6 6 5 5 4 3
26 26 34 28 30 24 30 35 26 20 29 26 24 22 21 22 19 16 21 16 19 18 19 17 17 17 14 13 8 10 5 7 4 2 4 13 9 5 4 3 6 10 8 9 8 9 8 8 6
30 33 29 28 27 29 30 32 25 23 19 26 26 24 24 24 22 18 17 20 13 17 15 16 14 12 14 8 7 6 7 7 0 1 4 4 5 5 7 7 8 9 8 8 5 8 3 7 10
31 29 26 24 26 30 27 27 27 25 22 24 22 24 25 26 23 21 18 19 17 17 15 16 15 12 11 8 8 8 9 8 5 5 7 10 8 9 9 8 9 9 8 4 7 2 3 3 5
34 30 31 17 18 26 27 28 26 27 24 21 22 22 25 25 25 23 22 19 17 16 15 14 12 8 11 9 8 6 7 5 7 7 8 8 10 9 9 10 9 10 8 7 6 6 2 5 5
33 33 30 27 13 22 18 21 25 28 27 21 21 21 24 25 26 24 23 20 19 17 16 15 15 11 9 11 8 6 8 6 7 9 6 8 8 8 8 9 8 8 6 6 6 4 6 6 3
32 30 31 29 23 18 22 19 24 27 28 26 22 22 21 24 26 25 24 21 18 18 17 17 16 11 13 12 8 11 9 9 7 7 6 6 7 9 7 9 8 8 5 6 4 4 3 1 6
29 27 27 29 26 23 22 20 19 28 27 28 28 26 23 22 23 25 23 22 20 18 17 15 16 13 14 12 10 11 9 5 7 5 9 9 8 9 8 5 8 5 5 4 3 1 2 1 4
17 26 28 24 22 24 25 23 22 23 32 30 28 28 25 22 23 24 24 21 19 15 16 15 15 14 13 10 12 10 9 11 9 7 7 5 3 5 6 7 5 3 4 5 4 2 1 3 4
23 23 13 13 20 17 27 24 21 30 26 28 28 29 26 24 23 22 23 23 19 17 15 13 14 13 12 14 14 13 15 19 17 13 10 11 2 4 5 7 7 5 4 4 2 1 3 4 4
30 25 15 24 18 24 27 31 24 26 17 25 25 25 24 24 22 23 21 19 16 15 15 15 16 16 15 16 14 14 15 11 11 11 10 13 2 2 2 4 5 4 4 2 2 5 4 2 5
24 25 21 18 20 22 26 26 28 25 8 12 19 26 25 24 23 19 22 18 17 15 16 16 16 16 15 18 15 12 9 8 9 11 10 8 12 5 5 4 4 4 2 3 4 5 5 3 6
28 26 20 13 10 17 26 35 21 29 25 17 15 21 24 21 21 19 17 19 16 17 18 18 16 18 18 16 13 11 12 12 12 11 11 10 6 6 4 4 3 2 1 3 5 6 5 5 6
20 25 21 18 12 4 19 22 21 28 23 21 20 22 18 16 15 14 16 18 19 16 17 16 18 17 15 15 15 15 13 12 11 12 11 10 8 6 5 3 2 1 3 4 6 7 8 6 8
23 12 27 17 24 14 14 12 25 21 20 22 23 19 17 15 13 15 18 18 18 17 17 17 17 16 16 16 16 15 14 13 12 11 11 9 7 4 4 3 2 4 4 5 6 8 8 8 8
Wind_Direction
259 235 246 256 244 232 251 242 257 101 203 228 23 255 306 327 40 42 120 121 131 138 150 155 143 143 144 146 147 145 146 146 146 145 145 146 148 147 143 134 127 128 131 134 136 138 140 144 147
274 238 238 264 238 243 235 250 264 222 211 117 228 231 241 255 68 106 127 140 135 138 148 154 144 143 143 144 147 147 147 147 147 145 145 147 149 148 147 138 133 133 136 139 142 144 147 151 155
247 235 252 228 233 241 250 233 216 179 181 191 260 265 349 292 74 117 89 143 133 143 156 141 144 143 146 144 147 147 146 147 147 145 148 150 150 150 147 142 141 143 146 148 149 151 154 158 163
217 209 247 256 247 232 250 266 308 193 244 177 254 286 162 28 3 91 135 147 135 146 157 137 146 144 145 146 145 145 147 148 146 148 151 150 149 147 145 143 144 152 153 155 155 157 164 169 174
234 252 233 229 243 257 268 252 288 259 243 230 221 233 207 128 71 115 149 146 151 154 135 153 145 142 145 144 144 146 150 150 149 151 152 153 153 152 153 155 160 165 165 164 165 170 174 178 184
223 237 237 237 244 237 240 257 242 254 245 227 227 252 260 96 154 147 158 155 156 153 138 148 145 142 144 144 146 149 152 149 152 154 155 158 160 161 161 164 168 172 174 176 177 179 183 184 190
236 225 241 248 258 255 236 225 221 242 241 228 212 248 236 152 174 158 163 160 157 149 153 157 163 150 142 145 150 154 155 156 159 160 161 163 165 166 168 171 174 178 181 182 182 186 192 194 202
234 248 253 243 249 256 254 252 206 223 253 251 257 236 239 214 131 160 170 162 161 152 157 163 162 165 167 161 154 155 159 159 162 163 163 165 168 173 177 171 181 184 185 188 194 200 202 205 206
226 245 240 239 244 251 252 253 202 240 251 232 169 231 115 108 162 172 175 169 166 161 157 165 164 167 174 165 161 158 161 159 157 163 163 158 190 185 177 203 155 181 190 196 204 211 218 220 224
225 230 240 243 250 252 247 220 255 205 230 234 215 217 239 195 205 192 185 179 173 172 163 166 164 171 179 165 156 178 173 179 184 184 177 196 203 185 211 183 163 176 197 207 212 215 220 231 239
219 238 246 242 258 266 266 243 218 237 233 219 206 219 202 228 203 209 195 190 175 176 169 166 162 175 183 170 160 181 175 178 188 186 176 212 200 183 216 174 181 199 198 214 200 201 222 223 237
230 237 245 267 272 228 264 262 248 228 242 250 216 203 162 221 207 219 205 195 170 172 173 162 164 177 198 168 168 186 181 186 191 190 181 203 220 190 217 223 184 197 198 222 206 212 217 234 234
231 239 244 250 249 258 237 242 249 245 217 252 247 149 210 236 217 222 228 215 161 171 176 168 164 178 196 189 172 199 191 186 195 180 187 210 207 201 206 239 257 210 221 193 244 241 208 228 262
235 239 246 243 254 243 250 244 238 235 240 219 237 208 214 227 227 211 220 216 163 166 175 172 175 178 187 202 176 199 201 169 206 198 188 208 211 194 211 215 216 251 263 294 333 248 260 224 251
260 258 245 240 234 234 245 248 238 236 216 229 218 224 226 220 210 223 204 198 167 164 173 176 182 177 185 204 191 195 192 222 201 214 185 194 215 214 235 212 221 228 248 241 291 323 341 332 345
248 249 242 232 228 233 220 250 233 226 222 214 223 222 218 223 213 229 190 184 158 179 171 180 186 177 182 196 177 211 197 209 202 194 164 194 198 237 205 268 33 34 59 37 358 340 338 326 336
238 238 232 242 224 217 217 241 242 236 210 222 218 220 217 209 208 208 200 161 179 188 166 181 187 180 170 201 200 213 154 213 237 157 185 179 204 182 210 25 66 69 63 61 45 31 23 345 341
223 227 235 242 222 215 221 235 243 211 220 211 218 216 214 211 205 193 228 187 198 172 179 177 182 180 158 202 157 180 223 205 11 109 86 126 162 168 144 113 104 118 98 80 45 37 4 357 327
240 235 240 230 250 220 218 237 224 240 216 212 215 210 210 208 204 191 196 213 186 173 195 176 183 156 160 179 172 193 199 193 177 84 117 120 131 141 142 127 124 113 112 143 107 67 261 81 289
248 248 258 258 233 236 213 222 247 219 220 222 216 210 208 202 205 193 186 193 197 176 183 177 159 179 166 169 190 193 185 157 123 136 142 146 153 160 140 145 147 139 140 147 176 185 159 221 217
231 237 242 249 245 239 219 238 222 238 226 214 226 209 207 202 198 198 188 187 182 181 180 163 167 170 167 168 197 151 159 163 135 152 149 154 157 159 169 156 153 158 198 186 190 118 270 287 282
238 229 236 247 244 225 210 235 220 222 223 219 218 207 203 198 198 198 191 178 190 184 177 165 157 172 171 181 177 166 173 176 149 156 134 152 168 160 154 150 153 168 173 152 175 241 268 355 300
249 237 230 232 242 242 210 223 255 200 217 212 211 204 198 196 196 196 183 191 188 183 165 164 153 173 169 166 173 173 189 154 119 107 128 163 140 147 146 168 170 137 204 83 110 155 10 340 284
256 240 246 229 231 231 222 218 222 235 206 210 207 207 197 199 195 197 186 189 189 172 161 145 152 163 163 162 176 181 169 136 109 98 90 43 56 73 89 95 97 111 124 141 136 125 236 322 317
213 228 218 225 220 224 210 228 218 200 204 207 208 202 204 203 198 189 184 188 162 151 139 135 138 129 137 98 93 108 118 114 113 127 124 70 155 126 159 135 157 144 106 117 107 204 264 237 275
212 216 219 197 203 206 222 213 216 232 294 188 203 200 190 195 191 187 173 129 137 123 142 137 133 131 129 121 120 123 128 132 134 145 125 118 132 18 6 101 111 128 136 155 186 230 245 274 273
222 217 211 267 231 211 209 229 225 209 220 180 194 176 188 187 187 159 125 139 128 149 151 140 138 133 128 129 129 129 131 131 115 108 107 102 123 154 216 108 98 95 65 358 341 275 291 300 283
237 200 210 228 231 237 209 201 217 211 179 188 214 169 176 168 111 117 136 130 152 159 145 146 146 146 135 132 127 125 117 115 112 110 105 116 95 101 158 123 111 86 22 320 321 321 312 315 299
208 226 196 237 211 212 218 188 196 186 191 167 195 130 117 100 116 131 130 148 145 140 139 137 135 131 131 122 120 123 121 117 115 110 109 112 107 157 144 134 181 286 310 325 323 309 284 302 301
222 208 238 202 227 230 270 201 194 173 150 177 108 113 112 114 127 131 135 132 139 134 139 136 133 128 123 123 119 120 119 115 109 111 110 124 135 132 109 69 302 307 327 320 308 302 317 315 321